[[{"header":{"parameterUnit":"m.s-1","parameterCategory":1,"la1":30.2991,"la2":30.254,"lo1":-89.0895,"lo2":-89.0444,"dy":0.0017,"dx":0.0017,"nx":28,"ny":28,"refTime":"2026-03-05T09:00:00:Z","depth":0,"parameterNumber":2,"parameterNumberName":"U-component_of_WINDS"},"data":[0,0,0,0,0,0,0,0,0,0,0,0,0,0,0,0,0,0,0,0,0,0,0,0,0,0,0,0,0,0,0,0,0,0,0,0,0,0,0,0,0,0,0,0,0,0,0,0,0,0,0,0,0,0,0,0,0,0,-4.0101,-4.0102,0,-4.0185,-4.0186,-4.0187,-4.0171,-4.0169,-4.0168,-4.0166,-4.0251,-4.0255,-4.0258,0,0,0,0,0,0,0,0,0,0,0,0,0,-3.9927,-3.993,-4.0101,-4.0102,-4.0103,-4.0185,-4.0186,-4.0187,-4.0171,-4.0169,-4.0167,-4.0165,-4.025,-4.0254,-4.0258,0,0,0,0,0,0,0,0,0,0,0,0,0,-4.0006,-3.9932,-4.0101,-4.0105,-4.0106,-4.0184,-4.0186,-4.0187,-4.0171,-4.0169,-4.0167,-4.0165,-4.0248,-4.0254,-4.0259,-4.0338,0,0,-4.0276,-4.0278,0,0,0,0,0,0,0,0,-4.0002,-4.0012,-4.0103,-4.0105,-4.0106,-4.0165,-4.0156,-4.0238,-4.0172,-4.0146,-4.0166,-4.0163,-4.0224,-4.0231,-4.0252,-4.0342,-4.0346,-4.0276,-4.028,-4.0282,-4.0284,0,0,0,0,0,0,0,-3.9996,-4.0009,-4.0134,-4.0105,-4.0106,-4.0103,-4.0111,-4.0171,-4.0197,-4.0148,-4.0147,-4.0158,-4.0224,-4.0247,-4.0254,-4.0347,-4.0276,-4.0281,-4.0284,-4.0287,-4.0507,-4.0509,0,0,0,0,0,0,-3.9989,-4.0004,-4.0131,-4.0137,-4.0047,-4.0108,-4.0117,-4.0148,-4.0196,-4.0201,-4.016,-4.0157,-4.0239,-4.0248,-4.0257,-4.0352,-4.0282,-4.0287,-4.029,-4.0505,-4.0508,-4.051,0,0,0,0,0,0,-3.9986,-4.0001,-4.0128,-4.007,-4.0086,-4.0113,-4.0148,-4.0151,-4.0173,-4.0205,-4.0209,-4.0178,-4.0237,-4.0249,-4.0318,-4.0355,-4.029,-4.0295,-4.0501,-4.0505,-4.0509,-4.0544,0,0,0,0,0,0,-3.9981,-4.0,-4.003,-4.0071,-4.0089,-4.0188,-4.015,-4.0154,-4.0183,-4.018,-4.0223,-4.0228,-4.0236,-4.031,-4.0324,-4.0361,-4.0299,-4.0498,-4.0503,-4.0508,-4.0539,-4.0548,-4.0556,0,0,0,0,0,-3.9975,-4.0036,-4.0031,-4.0047,-4.0128,-4.019,-4.02,-4.0209,-4.0186,-4.0217,-4.0237,-4.0226,-4.035,-4.0317,-4.0333,-4.0372,-4.0496,-4.0502,-4.0507,-4.0536,-4.0546,-4.0556,0,0,0,0,0,0,-3.9997,-4.0041,-4.0037,-4.0113,-4.0148,-4.0187,-4.0225,-4.0221,-4.0262,-4.0258,-4.0267,-4.0277,-4.0347,-4.0367,-4.0331,-4.0452,-4.0419,-4.0428,-4.0436,-4.0446,-4.0454,-4.0447,-4.0304,0,0,0,0,0,-4.0011,-4.0058,-4.0095,-4.0159,-4.0176,-4.0198,-4.0226,-4.023,-4.0266,-4.0281,-4.0306,-4.0342,-4.0389,-4.0419,-4.0464,-4.0543,-4.0552,-4.0578,-4.0587,-4.0593,-4.06,-4.0643,-4.0655,-4.0529,-4.0529,-4.0529,0,0,-4.004,-4.007,-4.0099,-4.0164,-4.0191,-4.024,-4.0211,-4.0263,-4.0299,-4.0289,-4.0355,-4.0376,-4.0416,-4.0491,-4.0525,-4.0509,-4.0637,-4.0601,-4.0606,-4.0609,-4.065,-4.0662,-4.0673,-4.0533,-4.0532,-4.0532,0,0,-4.0117,-4.0145,-4.0201,-4.023,-4.0273,-4.0287,-4.0301,-4.0342,-4.0355,-4.0422,-4.0415,-4.0459,-4.0539,-4.0568,-4.0594,-4.0685,-4.0676,-4.0699,-4.0741,-4.0783,-4.0793,-4.0802,-4.0833,-4.0844,-4.0707,-4.0707,-4.0707,0,-4.0147,-4.022,-4.0231,-4.0284,-4.0313,-4.0307,-4.0364,-4.0392,-4.0447,-4.0466,-4.0449,-4.055,-4.0577,-4.0658,-4.0681,-4.0702,-4.0717,-4.0693,-4.0791,-4.08,-4.0808,-4.0838,-4.085,-4.0709,-4.0709,-4.0709,-4.0708,0,-4.0255,-4.0306,-4.0346,-4.04,-4.0433,-4.0488,-4.0507,-4.054,-4.0543,-4.0559,-4.0628,-4.0661,-4.0712,-4.0732,-4.0735,-4.0814,-4.0803,-4.0789,-4.0756,-4.0823,-4.0851,-4.0862,-4.0713,-4.0712,-4.0711,-4.071,0,0,-4.0345,-4.0406,-4.042,-4.0444,-4.0492,-4.0532,-4.0587,-4.0638,-4.0665,-4.0705,-4.0751,-4.082,-4.0807,-4.0836,-4.0842,-4.088,-4.0949,-4.086,-4.0862,-4.0874,-4.1037,-4.1046,-4.1059,-4.0945,-4.0947,-4.0949,-4.1033,0,-4.0425,-4.0522,-4.0534,-4.062,-4.0667,-4.0665,-4.0713,-4.0747,-4.0765,-4.0808,-4.0828,-4.0876,-4.0856,-4.0874,-4.0911,-4.0932,-4.0981,-4.0927,-4.0987,-4.0989,-4.0974,-4.1074,-4.1084,-4.1161,-4.1045,-4.1047,-4.1048,0,-4.053,-4.0572,-4.0663,-4.0706,-4.0726,-4.0769,-4.0817,-4.0858,-4.0898,-4.0908,-4.0942,-4.0944,-4.1001,-4.0969,-4.1048,-4.1011,-4.1037,-4.1051,-4.1055,-4.1058,-4.102,-4.1078,-4.1187,-4.1197,-4.1066,-4.1064,-4.1063,0,-4.0584,-4.0665,-4.0729,-4.0751,-4.0802,-4.0832,-4.0855,-4.0893,-4.0923,-4.0966,-4.0985,-4.1034,-4.106,-4.1098,-4.1113,-4.1088,-4.1191,-4.116,-4.1201,-4.12,-4.122,-4.1218,-4.1331,-4.1241,-4.1241,-4.1241,-4.124,0,-4.067,-4.0726,-4.0754,-4.0794,-4.0856,-4.0871,-4.0932,-4.0954,-4.0988,-4.1032,-4.1033,-4.1074,-4.1093,-4.1138,-4.1151,-4.1214,-4.1226,-4.1236,-4.1238,-4.1234,-4.1232,-4.1249,-4.1243,-4.1244,-4.1243,-4.1242,-4.1242,0,-4.074,-4.0761,-4.0832,-4.0875,-4.0888,-4.0932,-4.0969,-4.1007,-4.1026,-4.1082,-4.1096,-4.1125,-4.1177,-4.1197,-4.1261,-4.127,-4.1342,-4.1341,-4.1328,-4.1328,-4.1367,-4.1362,-4.1493,-4.151,-4.1411,-4.1412,-4.1412,0,-4.0792,-4.0834,-4.0883,-4.0913,-4.0937,-4.0985,-4.1016,-4.1033,-4.1065,-4.1115,-4.1148,-4.12,-4.1243,-4.1327,-4.1353,-4.1403,-4.1402,-4.1444,-4.1409,-4.1404,-4.14,-4.1396,-4.14,-4.1449,-4.145,-4.1451,-4.1452,0,-4.0881,-4.0891,-4.0935,-4.0985,-4.1022,-4.1061,-4.11,-4.1124,-4.1147,-4.1184,-4.1238,-4.1271,-4.1337,-4.1389,-4.144,-4.1463,-4.1461,-4.1464,-4.1475,-4.147,-4.146,-4.1464,-4.1344,-4.146,-4.1459,-4.1458,-4.1458,-4.1458,-4.0942,-4.098,-4.102,-4.1071,-4.1102,-4.1138,-4.1176,-4.1201,-4.1246,-4.1301,-4.1309,-4.1367,-4.1407,-4.1475,-4.1502,-4.1547,-4.1536,-4.1553,-4.1557,-4.156,-4.1562,-4.1456,-4.1557,-4.1557,-4.1556,-4.1556,-4.1556,0,-4.103,-4.1056,-4.1103,-4.1157,-4.1197,-4.1194,-4.1237,-4.127,-4.132,-4.1359,-4.1401,-4.1463,-4.1514,-4.1546,-4.1598,-4.1628,-4.1628,-4.164,-4.1637,-4.1642,-4.157,-4.1554,-4.1639,-4.1639,-4.1639,-4.1639,-4.1639,-4.1639,-4.108,-4.1143,-4.1158,-4.1237,-4.1264,-4.132,-4.1345,-4.1379,-4.1409,-4.1478,-4.1521,-4.1542,-4.1578,-4.1632,-4.1679,-4.1687,-4.1705,-4.1718,-4.1725,-4.1656,-4.1647,-4.1639,-4.1624,-4.1722,-4.1723,-4.1793,-4.1794,-4.1794]},{"header":{"parameterUnit":"m.s-1","parameterCategory":1,"la1":30.2991,"la2":30.254,"lo1":-89.0895,"lo2":-89.0444,"dy":0.0017,"dx":0.0017,"nx":28,"ny":28,"refTime":"2026-03-05T09:00:00:Z","depth":0,"parameterNumber":3,"parameterNumberName":"V-component_of_WINDS"},"data":[0,0,0,0,0,0,0,0,0,0,0,0,0,0,0,0,0,0,0,0,0,0,0,0,0,0,0,0,0,0,0,0,0,0,0,0,0,0,0,0,0,0,0,0,0,0,0,0,0,0,0,0,0,0,0,0,0,0,1.6939,1.694,0,1.703,1.7031,1.7032,1.7071,1.707,1.707,1.707,1.7163,1.7165,1.7168,0,0,0,0,0,0,0,0,0,0,0,0,0,1.6798,1.68,1.6939,1.694,1.6941,1.703,1.7031,1.7033,1.7071,1.707,1.707,1.707,1.7162,1.7165,1.7168,0,0,0,0,0,0,0,0,0,0,0,0,0,1.6871,1.6801,1.6939,1.6971,1.6975,1.703,1.7031,1.7033,1.7071,1.707,1.707,1.707,1.7161,1.7165,1.7168,1.7198,0,0,1.7181,1.7182,0,0,0,0,0,0,0,0,1.6867,1.6876,1.6965,1.6969,1.6973,1.7039,1.7016,1.7088,1.7071,1.7034,1.707,1.707,1.7122,1.7129,1.7146,1.7202,1.7206,1.7181,1.7183,1.7185,1.7186,0,0,0,0,0,0,0,1.6862,1.6873,1.6975,1.6966,1.6971,1.6981,1.6991,1.703,1.7078,1.7037,1.704,1.7051,1.7124,1.7143,1.7149,1.7208,1.7181,1.7184,1.7187,1.7188,1.7296,1.7296,0,0,0,0,0,0,1.6851,1.6868,1.6972,1.6978,1.6918,1.6984,1.6995,1.7018,1.7078,1.7087,1.7051,1.7052,1.7136,1.7144,1.7152,1.7193,1.7185,1.7189,1.7191,1.7296,1.7296,1.7297,0,0,0,0,0,0,1.6848,1.686,1.6968,1.6924,1.6938,1.6986,1.7012,1.702,1.7039,1.7088,1.7097,1.7061,1.7136,1.7147,1.7187,1.7197,1.719,1.7194,1.7295,1.7296,1.7296,1.7274,0,0,0,0,0,0,1.6844,1.6859,1.687,1.6924,1.6941,1.7001,1.7012,1.7022,1.7046,1.7048,1.71,1.7108,1.7137,1.7181,1.7191,1.7202,1.7197,1.7294,1.7295,1.7296,1.7274,1.7273,1.7273,0,0,0,0,0,1.6839,1.6859,1.6871,1.6883,1.6956,1.7002,1.7011,1.7044,1.7046,1.7058,1.7091,1.7107,1.7194,1.7185,1.7197,1.7209,1.7294,1.7295,1.7296,1.7274,1.7274,1.7273,0,0,0,0,0,0,1.6805,1.6867,1.688,1.6918,1.6955,1.7008,1.7024,1.7042,1.7078,1.7079,1.7117,1.7129,1.7167,1.7192,1.718,1.7242,1.7245,1.7249,1.7224,1.7225,1.7224,1.7218,1.72,0,0,0,0,0,1.6802,1.6834,1.6886,1.6915,1.6933,1.6976,1.6997,1.7019,1.7058,1.7073,1.7108,1.7145,1.7182,1.7204,1.724,1.7278,1.7291,1.7292,1.7292,1.7291,1.7294,1.7318,1.732,1.73,1.73,1.73,0,0,1.6796,1.6834,1.6851,1.6909,1.694,1.6973,1.6988,1.7022,1.7047,1.7078,1.7119,1.7146,1.7191,1.723,1.725,1.7253,1.7303,1.7293,1.7292,1.7295,1.732,1.7322,1.7323,1.7301,1.7301,1.7301,0,0,1.6802,1.6833,1.6862,1.6893,1.694,1.6969,1.6975,1.7027,1.7047,1.7089,1.7113,1.7144,1.7205,1.7236,1.726,1.7281,1.7298,1.7291,1.729,1.7314,1.7315,1.7317,1.7326,1.7329,1.7294,1.7294,1.7294,0,1.6788,1.6839,1.6874,1.6908,1.6933,1.6964,1.6994,1.7023,1.7078,1.7096,1.7098,1.7177,1.7209,1.7258,1.7263,1.7281,1.7291,1.7286,1.7312,1.7314,1.7316,1.7326,1.7329,1.7293,1.7293,1.7293,1.7293,0,1.6821,1.6856,1.6874,1.6929,1.6956,1.6988,1.7028,1.7052,1.7072,1.7101,1.7145,1.7184,1.723,1.7243,1.7262,1.7295,1.7296,1.7305,1.7309,1.7317,1.7326,1.733,1.7292,1.7292,1.7292,1.7292,0,0,1.6807,1.6883,1.6889,1.6915,1.697,1.6999,1.7032,1.7078,1.7098,1.7136,1.7167,1.7219,1.7228,1.7255,1.7279,1.7299,1.7316,1.7306,1.7307,1.7308,1.7357,1.7351,1.7355,1.7327,1.7328,1.7329,1.7354,0,1.6822,1.6884,1.6918,1.6966,1.7,1.7031,1.7061,1.7098,1.7127,1.716,1.7191,1.7228,1.7237,1.7254,1.7275,1.7309,1.7327,1.7308,1.7357,1.7358,1.7346,1.736,1.7353,1.7375,1.7358,1.7359,1.7359,0,1.6847,1.6886,1.6938,1.6992,1.7008,1.7034,1.708,1.7111,1.7155,1.7175,1.7206,1.723,1.7268,1.7269,1.7323,1.7309,1.7332,1.7351,1.7353,1.736,1.736,1.7368,1.7383,1.7386,1.7365,1.7365,1.7364,0,1.6834,1.6899,1.694,1.6961,1.7025,1.7043,1.707,1.7114,1.714,1.718,1.7198,1.7241,1.7265,1.7299,1.7335,1.7332,1.7386,1.7389,1.7404,1.7403,1.7414,1.7413,1.7434,1.7426,1.7426,1.7426,1.7426,0,1.6847,1.6878,1.6935,1.696,1.6997,1.7036,1.7071,1.71,1.714,1.7171,1.72,1.723,1.7274,1.731,1.7337,1.7379,1.7389,1.7407,1.7414,1.7405,1.7403,1.7421,1.7421,1.7427,1.7427,1.7427,1.7427,0,1.6838,1.6878,1.6924,1.6981,1.6997,1.7021,1.707,1.7096,1.7127,1.7167,1.7179,1.7227,1.727,1.7309,1.7366,1.7385,1.7428,1.7436,1.7413,1.7418,1.7431,1.743,1.7465,1.7472,1.7458,1.7458,1.7458,0,1.6845,1.687,1.693,1.6955,1.6982,1.7019,1.7047,1.7087,1.7115,1.7168,1.7188,1.7234,1.7273,1.7341,1.7381,1.7425,1.7436,1.7445,1.7443,1.7434,1.7438,1.7437,1.7441,1.7445,1.7445,1.7445,1.7445,0,1.6853,1.6872,1.691,1.6957,1.6989,1.7028,1.7067,1.7085,1.7132,1.7162,1.7207,1.7238,1.7297,1.7343,1.7392,1.7421,1.7442,1.7446,1.7452,1.7443,1.743,1.7439,1.7414,1.7445,1.7445,1.7445,1.7445,1.7445,1.6853,1.6878,1.6925,1.6968,1.7002,1.7039,1.7067,1.7102,1.7141,1.7193,1.7215,1.7261,1.7307,1.7376,1.7405,1.7443,1.7446,1.7455,1.7457,1.7459,1.7458,1.7423,1.7452,1.7452,1.7452,1.7452,1.7452,0,1.6864,1.6897,1.6936,1.6991,1.7025,1.7042,1.7087,1.7115,1.7156,1.7198,1.7236,1.729,1.7335,1.738,1.7427,1.7449,1.746,1.7461,1.746,1.7467,1.7451,1.7442,1.7451,1.7451,1.7451,1.7451,1.7451,1.7451,1.6874,1.6917,1.6942,1.7004,1.7037,1.7084,1.7108,1.7143,1.7176,1.7235,1.7274,1.7303,1.7346,1.7398,1.7441,1.7453,1.747,1.7468,1.7483,1.7468,1.7467,1.7467,1.7459,1.7471,1.7471,1.7496,1.7496,1.7496]}]]